Regional Weather Roundup
Issued by NWS

Home | Current Version | Previous Version | Graphics & Text | Print | Product List | Glossary On
Versions: 1 2 3 4 5 6 7 8 9 10 11 12 13 14 15 16 17 18 19 20 21 22 23 24 25 26 27 28 29 30 31 32 33 34 35 36 37 38 39 40 41 42 43 44 45 46 47 48 49 50
000
ASUS43 KFSD 101302
RWRSD

WEATHER ROUNDUP FOR SOUTH DAKOTA
NATIONAL WEATHER SERVICE SIOUX FALLS SD
700 AM CST WED FEB 10 2016

NOTE: "FAIR" INDICATES FEW OR NO CLOUDS BELOW 12,000 FEET WITH NO
SIGNIFICANT WEATHER AND/OR OBSTRUCTIONS TO VISIBILITY.


SDZ001>005-009-010-012>017-101400-
NORTHWEST AND NORTH CENTRAL SOUTH DAKOTA

CITY           SKY/WX    TMP DP  RH WIND       PRES   REMARKS
BUFFALO          N/A     39  25  57 W20       29.79R
FAITH            N/A     34  25  69 W13       29.83F WCI  25
MOBRIDGE       CLOUDY    21  18  88 SE8       29.83F WCI  11
$$

SDZ012>016-024>037-041>051-057-063-072>074-101400-
SOUTHWEST AND SOUTH CENTRAL SOUTH DAKOTA

CITY           SKY/WX    TMP DP  RH WIND       PRES   REMARKS
RAPID CTY ARPT CLOUDY    39  23  52 NW12      29.88S
PIERRE         CLOUDY    23  21  92 CALM      29.87S
CUSTER         CLEAR     46  12  25 NW12G26   29.97S
ELLSWORTH AFB  CLEAR     43  23  45 NW12      29.87S
PHILIP         CLEAR     31  26  82 W10       29.87S WCI  22
PINE RIDGE     CLEAR     38  24  57 W12       29.96S
WINNER         FAIR      30  25  81 SW7       29.86S WCI  23
$$

SDZ004>011-016>023-039-040-101400-
NORTHEAST SOUTH DAKOTA

CITY           SKY/WX    TMP DP  RH WIND       PRES   REMARKS
ABERDEEN       FLURRIES  17  12  80 E9        29.96F WCI   6
WATERTOWN      LGT SNOW  11   6  81 SE7       29.96S WCI   0
SISSETON         N/A      9   6  88 SE12      30.04F WCI  -6
$$

SDZ017-020-022-023-036>040-048>070-101400-
SOUTHEAST SOUTH DAKOTA

CITY           SKY/WX    TMP DP  RH WIND       PRES   REMARKS
SIOUX FALLS    LGT SNOW  18  14  84 E10       29.99F FOG     WCI   6
HURON          CLOUDY    22  19  89 SE12      29.95F WCI  10
CHAMBERLAIN    CLOUDY    22  20  93 E5        29.89S WCI  16
MITCHELL       CLOUDY    24  19  81 SE12      29.97R WCI  13
YANKTON        CLOUDY    21  18  86 E12       29.95F WCI   9
$$

ABBREVIATIONS USED IN REMARKS
   TC - TEMPERATURE IN CELSIUS
  WCI - WIND CHILL INDEX
   HX - HEAT INDEX
  VSB - VISIBILITY




USA.gov is the U.S. government's official web portal to all federal, state and local government web resources and services.